LA3SP-12 Weather Reports


time (UTC)temp
C
wind
direction
speed
KPH
gust
KPH
rain 1hr
cm
rain 24hr
cm
rain mn
cm
humidity
%
barometer
mb
20260508010214 -3 247 0.0 1.6 0.00 0.00 0.00 69 1018.2
20260508005405 -3 0 0.0 0.0 0.00 0.00 0.00 68 1018.1
20260508004712 -3 0 0.0 0.0 0.00 0.00 0.00 68 1018.1
20260508003815 -2 0 0.0 0.0 0.00 0.00 0.00 67 1018.1
20260508002703 -2 0 0.0 0.0 0.00 0.00 0.00 66 1018.1
20260508002015 -2 0 0.0 0.0 0.00 0.00 0.00 66 1018.2
20260508000904 -2 225 0.0 1.6 0.00 0.00 0.00 66 1018.1
20260508000214 -2 0 0.0 0.0 0.00 0.00 0.00 65 1018.1
20260507235616 -2 0 0.0 0.0 0.00 0.00 0.00 65 1018.1
20260507234503 -2 0 0.0 0.0 0.00 0.00 0.00 65 1018.0
20260507233605 -2 0 0.0 0.0 0.00 0.00 0.00 65 1018.0
20260507232913 -2 0 0.0 0.0 0.00 0.00 0.00 65 1017.9
20260507231803 -2 0 0.0 0.0 0.00 0.00 0.00 64 1017.9
20260507230903 -2 0 0.0 0.0 0.00 0.00 0.00 63 1017.9
20260507230003 -1 0 0.0 0.0 0.00 0.00 0.00 62 1017.8
20260507225616 -1 0 0.0 0.0 0.00 0.00 0.00 62 1017.7
20260507224504 -1 0 0.0 0.0 0.00 0.00 0.00 60 1017.7
20260507223605 -1 0 0.0 0.0 0.00 0.00 0.00 60 1017.8
20260507222703 -1 0 0.0 0.0 0.00 0.00 0.00 59 1017.6
20260507222016 0 0 0.0 0.0 0.00 0.00 0.00 58 1017.7
20260507221113 0 0 0.0 0.0 0.00 0.00 0.00 57 1017.6
20260507220003 0 0 0.0 0.0 0.00 0.00 0.00 55 1017.6
20260507215617 0 0 0.0 0.0 0.00 0.00 0.00 55 1017.6
20260507214503 0 0 0.0 0.0 0.00 0.00 0.00 53 1017.5
20260507213603 0 0 0.0 0.0 0.00 0.00 0.00 54 1017.4
20260507212703 0 0 0.0 0.0 0.00 0.00 0.00 54 1017.3
20260507211803 0 0 0.0 0.0 0.00 0.00 0.00 53 1017.2
20260507211114 0 0 0.0 0.0 0.00 0.00 0.00 53 1017.2
20260507210003 0 0 0.0 0.0 0.00 0.00 0.00 52 1017.2
20260507205404 0 0 0.0 0.0 0.00 0.00 0.00 52 1017.2
20260507204503 0 0 0.0 0.0 0.00 0.00 0.00 51 1017.0
20260507203812 0 0 0.0 0.0 0.00 0.00 0.00 50 1017.0
20260507202703 0 0 0.0 0.0 0.00 0.00 0.00 50 1017.1
20260507202017 0 45 0.0 1.6 0.00 0.00 0.00 49 1017.2
20260507201115 1 0 0.0 0.0 0.00 0.00 0.00 47 1017.0
20260507200004 1 0 0.0 0.0 0.00 0.00 0.00 45 1016.8
20260507195411 1 0 0.0 0.0 0.00 0.00 0.00 43 1016.7
20260507194716 2 0 0.0 0.0 0.00 0.00 0.00 42 1016.7
20260507193813 2 0 0.0 0.0 0.00 0.00 0.00 41 1016.5
20260507192705 3 315 0.0 1.6 0.00 0.00 0.00 40 1016.2
20260507191803 3 315 1.6 1.6 0.00 0.00 0.00 38 1015.9
20260507190903 4 0 0.0 0.0 0.00 0.00 0.00 36 1015.6
20260507190004 4 46 0.0 4.8 0.00 0.00 0.00 35 1015.5
20260507185614 5 38 4.8 4.8 0.00 0.00 0.00 35 1015.6
20260507184503 5 61 3.2 6.4 0.00 0.00 0.00 34 1015.8
20260507183814 5 58 6.4 9.7 0.00 0.00 0.00 34 1015.9
20260507182916 6 42 9.7 9.7 0.00 0.00 0.00 33 1016.1
20260507182013 6 19 4.8 6.4 0.00 0.00 0.00 33 1016.1
20260507180903 6 26 4.8 4.8 0.00 0.00 0.00 32 1016.0
20260507180003 7 69 0.0 8.0 0.00 0.00 0.00 31 1016.1
20260507175615 7 55 0.0 8.0 0.00 0.00 0.00 31 1016.1
20260507174718 8 312 3.2 3.2 0.00 0.00 0.00 30 1016.3
20260507173814 8 159 0.0 3.2 0.00 0.00 0.00 29 1016.5
20260507172917 8 174 0.0 3.2 0.00 0.00 0.00 29 1016.8
20260507171803 8 153 3.2 3.2 0.00 0.00 0.00 29 1017.1
20260507171116 8 159 3.2 3.2 0.00 0.00 0.00 28 1016.7
20260507170005 9 160 4.8 4.8 0.00 0.00 0.00 27 1016.5
20260507165615 9 157 0.0 1.6 0.00 0.00 0.00 29 1016.3
20260507164712 8 193 0.0 6.4 0.00 0.00 0.00 28 1016.4
20260507163603 8 197 6.4 6.4 0.00 0.00 0.00 27 1016.3
20260507162705 9 218 0.0 4.8 0.00 0.00 0.00 27 1016.3
20260507161803 10 165 1.6 4.8 0.00 0.00 0.00 27 1016.2
20260507161117 10 200 4.8 4.8 0.00 0.00 0.00 27 1016.3
20260507160003 10 133 3.2 6.4 0.00 0.00 0.00 28 1016.3
20260507155616 10 158 0.0 6.4 0.00 0.00 0.00 28 1016.4
20260507154713 10 147 6.4 6.4 0.00 0.00 0.00 27 1016.5
20260507153603 9 174 1.6 3.2 0.00 0.00 0.00 27 1016.3
20260507152703 9 206 3.2 3.2 0.00 0.00 0.00 25 1016.3
20260507151808 10 173 3.2 8.0 0.00 0.00 0.00 26 1016.3
20260507150903 10 175 8.0 8.0 0.00 0.00 0.00 24 1016.3
20260507150004 10 225 3.2 12.9 0.00 0.00 0.00 27 1016.2
20260507145403 10 237 4.8 12.9 0.00 0.00 0.00 24 1016.2
20260507144714 9 310 4.8 4.8 0.00 0.00 0.00 25 1016.2
20260507143816 10 253 3.2 6.4 0.00 0.00 0.00 24 1016.2
20260507142703 9 270 4.8 9.7 0.00 0.00 0.00 27 1016.1
20260507141803 8 258 6.4 11.3 0.00 0.00 0.00 24 1016.2
20260507140903 8 252 6.4 11.3 0.00 0.00 0.00 23 1016.1
20260507140003 9 240 9.7 16.1 0.00 0.00 0.00 23 1016.1
20260507135403 9 260 6.4 16.1 0.00 0.00 0.00 24 1016.0
20260507134503 10 250 8.0 8.0 0.00 0.00 0.00 27 1016.0
20260507133604 10 238 8.0 9.7 0.00 0.00 0.00 28 1016.0
20260507132703 10 248 9.7 14.5 0.00 0.00 0.00 29 1016.0
20260507131805 10 243 3.2 9.7 0.00 0.00 0.00 30 1016.0
20260507130903 10 291 6.4 8.0 0.00 0.00 0.00 30 1015.9
20260507130216 11 216 8.0 9.7 0.00 0.00 0.00 29 1015.9
20260507125403 10 235 9.7 9.7 0.00 0.00 0.00 32 1016.0
20260507124715 9 243 8.0 9.7 0.00 0.00 0.00 32 1015.9
20260507123603 11 235 4.8 9.7 0.00 0.00 0.00 29 1015.9
20260507122705 11 289 8.0 17.7 0.00 0.00 0.00 33 1015.8
20260507121804 12 288 3.2 6.4 0.00 0.00 0.00 31 1015.9
20260507121114 11 304 3.2 12.9 0.00 0.00 0.00 33 1015.9
20260507120004 11 231 11.3 11.3 0.00 0.00 0.00 31 1015.8
20260507115403 13 190 6.4 8.0 0.00 0.00 0.00 28 1015.9
20260507114503 14 129 4.8 9.7 0.00 0.00 0.00 29 1015.9
20260507113605 13 59 3.2 8.0 0.00 0.00 0.00 31 1016.0
20260507112915 13 102 3.2 4.8 0.00 0.00 0.00 31 1015.9
20260507112013 14 34 4.8 6.4 0.00 0.00 0.00 32 1016.0
20260507110903 13 48 8.0 8.0 0.00 0.00 0.00 33 1016.2
20260507110003 12 16 1.6 6.4 0.00 0.00 0.00 34 1016.1
20260507105403 11 5 4.8 6.4 0.00 0.00 0.00 37 1016.1
20260507104716 11 328 6.4 9.7 0.00 0.00 0.00 35 1016.1
20260507103814 10 348 6.4 9.7 0.00 0.00 0.00 42 1016.0
20260507102703 6 295 9.7 19.3 0.00 0.00 0.00 43 1016.2
20260507102013 5 220 3.2 8.0 0.00 0.00 0.00 46 1016.2
20260507101116 5 204 8.0 11.3 0.00 0.00 0.00 43 1015.9
20260507100213 6 250 3.2 9.7 0.00 0.00 0.00 44 1015.7
20260507095403 5 208 9.7 9.7 0.00 0.00 0.00 46 1015.6
20260507094717 5 220 6.4 8.0 0.00 0.00 0.00 45 1015.4
20260507093603 5 227 8.0 8.0 0.00 0.00 0.00 44 1015.3
20260507092703 6 236 3.2 9.7 0.00 0.00 0.00 43 1015.2
20260507092014 6 230 8.0 8.0 0.00 0.00 0.00 43 1015.1
20260507091116 6 253 3.2 12.9 0.00 0.00 0.00 42 1014.9
20260507090004 6 204 8.0 11.3 0.00 0.00 0.00 42 1014.8
20260507085615 6 232 9.7 11.3 0.00 0.00 0.00 41 1014.7
20260507084503 8 347 6.4 6.4 0.00 0.00 0.00 40 1014.5
20260507083605 7 316 1.6 4.8 0.00 0.00 0.00 44 1014.4
20260507082703 6 330 1.6 6.4 0.00 0.00 0.00 44 1014.3
20260507082015 6 354 4.8 4.8 0.00 0.00 0.00 47 1014.2
20260507081117 5 298 1.6 8.0 0.00 0.00 0.00 49 1014.0
20260507080003 3 150 1.6 3.2 0.00 0.00 0.00 49 1013.8
20260507075616 3 186 3.2 8.0 0.00 0.00 0.00 49 1013.7
20260507074713 3 242 1.6 8.0 0.00 0.00 0.00 48 1014.0
20260507073603 3 250 6.4 6.4 0.00 0.00 0.00 48 1014.3
20260507072913 4 244 4.8 4.8 0.00 0.00 0.00 48 1014.3
20260507071803 4 263 0.0 9.7 0.00 0.00 0.00 49 1014.4
20260507071112 4 269 3.2 9.7 0.00 0.00 0.00 48 1014.4
20260507070215 3 253 0.0 6.4 0.00 0.00 0.00 51 1014.4
20260507065405 5 123 3.2 3.2 0.00 0.00 0.00 52 1014.5
20260507064504 3 225 0.0 1.6 0.00 0.00 0.00 54 1014.5
20260507063816 3 225 1.6 1.6 0.00 0.00 0.00 55 1014.5
20260507062703 3 135 1.6 1.6 0.00 0.00 0.00 59 1014.5
20260507061803 2 0 0.0 0.0 0.00 0.00 0.00 61 1014.3
20260507061113 1 0 0.0 0.0 0.00 0.00 0.00 62 1014.4
20260507060003 1 0 0.0 0.0 0.00 0.00 0.00 65 1014.4
20260507055403 0 120 0.0 1.6 0.00 0.00 0.00 66 1014.2
20260507054714 0 121 0.0 1.6 0.00 0.00 0.00 68 1014.2
20260507053817 0 112 0.0 1.6 0.00 0.00 0.00 69 1014.3
20260507052703 -1 112 0.0 1.6 0.00 0.00 0.00 73 1014.2
20260507052016 -2 112 0.0 1.6 0.00 0.00 0.00 74 1014.2
20260507050903 -3 0 0.0 0.0 0.00 0.00 0.00 76 1014.2
20260507050216 -4 0 0.0 0.0 0.00 0.00 0.00 76 1014.1
20260507045618 -5 0 0.0 0.0 0.00 0.00 0.00 76 1014.0
20260507044503 -5 0 0.0 0.0 0.00 0.00 0.00 76 1014.0
20260507043603 -5 0 0.0 0.0 0.00 0.00 0.00 76 1014.0
20260507042703 -5 0 0.0 0.0 0.00 0.00 0.00 76 1014.0
20260507041803 -5 225 0.0 3.2 0.00 0.00 0.00 76 1013.9
20260507041114 -5 39 0.0 3.2 0.00 0.00 0.00 76 1013.9
20260507040217 -5 43 3.2 3.2 0.00 0.00 0.00 76 1014.0
20260507035613 -5 25 1.6 3.2 0.00 0.00 0.00 76 1013.9
20260507034503 -5 322 0.0 1.6 0.00 0.00 0.00 77 1013.7
20260507033813 -6 67 0.0 1.6 0.00 0.00 0.00 75 1013.7
20260507032703 -6 0 0.0 0.0 0.00 0.00 0.00 74 1013.8
20260507032013 -5 0 0.0 0.0 0.00 0.00 0.00 74 1013.8
20260507030903 -5 0 0.0 0.0 0.00 0.00 0.00 74 1013.6
20260507030003 -5 135 0.0 3.2 0.00 0.00 0.00 73 1013.6
20260507025403 -5 135 0.0 3.2 0.00 0.00 0.00 73 1013.6
20260507024503 -5 67 0.0 3.2 0.00 0.00 0.00 73 1013.3
20260507023604 -5 67 3.2 3.2 0.00 0.00 0.00 73 1013.3
20260507022916 -5 135 0.0 3.2 0.00 0.00 0.00 73 1013.2
20260507021803 -5 37 0.0 3.2 0.00 0.00 0.00 73 1013.1
20260507021116 -5 31 3.2 3.2 0.00 0.00 0.00 72 1013.0
20260507020218 -5 0 0.0 0.0 0.00 0.00 0.00 71 1013.1
20260507015615 -5 0 0.0 0.0 0.00 0.00 0.00 71 1012.9
20260507014717 -5 0 0.0 0.0 0.00 0.00 0.00 71 1013.0
20260507013603 -4 0 0.0 0.0 0.00 0.00 0.00 69 1012.8
20260507012703 -4 0 0.0 0.0 0.00 0.00 0.00 69 1012.8
20260507012014 -4 270 0.0 1.6 0.00 0.00 0.00 68 1012.6